Regional Weather Roundup
Issued by NWS Charleston, WV

Home | Current Version | Previous Version | Graphics & Text | Print | Product List | Glossary Off
Versions: 1 2 3 4 5 6 7 8 9 10 11 12 13 14 15 16 17 18 19 20 21 22 23 24 25 26 27 28 29 30 31 32 33 34 35 36 37 38 39 40 41 42 43 44 45 46 47 48 49 50

000
ASUS41 KRLX 031510
RWRRLX
West Virginia Regional Weather Roundup
National Weather Service Charleston WV
1000 AM EST SAT DEC 03 2016

Note: "fair" indicates few or no clouds below 12,000 feet with no
significant weather and/or obstructions to visibility.

WVZ003-031600-
Northern Panhandle of West Virginia

CITY           SKY/WX    TMP DP  RH WIND       PRES   REMARKS
WHEELING       CLOUDY    34  27  75 W6        30.32R
$$

WVZ009-031600-
Northwest West Virginia

CITY           SKY/WX    TMP DP  RH WIND       PRES   REMARKS
PARKERSBURG    CLOUDY    38  27  64 NW5       30.38R
$$

WVZ006-031600-
Western West Virginia

CITY           SKY/WX    TMP DP  RH WIND       PRES   REMARKS
HUNTINGTON     CLOUDY    40  29  64 CALM      30.37R
$$

WVZ015-031600-
West Central West Virginia

CITY           SKY/WX    TMP DP  RH WIND       PRES   REMARKS
CHARLESTON     CLOUDY    39  29  67 CALM      30.35R
$$

WVZ022-031-031600-
North Central West Virginia

CITY           SKY/WX    TMP DP  RH WIND       PRES   REMARKS
CLARKSBURG     CLOUDY    36  27  69 NW7       30.33R
MORGANTOWN     CLOUDY    37  26  64 W5        30.32R
$$

WVZ025-035-042-045-031600-
Southern West Virginia

CITY           SKY/WX    TMP DP  RH WIND       PRES   REMARKS
BECKLEY        CLOUDY    32  24  72 NW5       30.29R
LOGAN          CLOUDY    36  27  69 CALM      30.33R
BLUEFIELD      CLOUDY    30  22  72 NW5       30.28R
LEWISBURG      CLOUDY    33  23  67 NW5       30.28R
$$

WVZ047-031600-
Northern Mountains of West Virginia

CITY           SKY/WX    TMP DP  RH WIND       PRES   REMARKS
ELKINS         CLOUDY    34  26  72 NW8       30.28R
$$

WVZ052-031600-
Eastern Panhandle of West Virginia

CITY           SKY/WX    TMP DP  RH WIND       PRES   REMARKS
MARTINSBURG    CLOUDY    42  28  57 W15       30.25R
PETERSBURG     MOSUNNY   41  30  64 NW9       30.28S
$$




USA.gov is the U.S. government's official web portal to all federal, state and local government web resources and services.